Weather History for Hayward, WI

Change the Weather History Date:

Friday, January 18, 2013

  Actual Average Record
Temperature  
Mean Temperature 14 °F -  
Max Temperature 30 °F 26 °F 32 °F (1999)
Min Temperature -2 °F 2 °F -23 °F (1997)
Degree Days  
Heating Degree Days 51    
Moisture  
Dew Point 13 °F    
Average Humidity 77    
Maximum Humidity 85    
Minimum Humidity 69    
Precipitation  
Precipitation 0.02 in - - ()
Sea Level Pressure  
Sea Level Pressure 29.92 in    
Wind  
Wind Speed 4 mph (SSE)    
Max Wind Speed 12 mph    
Max Gust Speed 17 mph    
Visibility 8 miles    
Events Snow    
Averages and records for this station are not official NWS values.
T = Trace of Precipitation, MM = Missing Value Source: NWS Daily Summary

Daily Weather History Graph

Daily Weather History Graph

Search for Another Location

Airport:

Trip Planner

Search our weather history database for the weather conditions in past years. The results will help you decide how hot, cold, wet, or windy it might be!

Date:

Astronomy

Jan. 18, 2013 Rise Set
Actual Time 7:41 AM CST 4:51 PM CST
Civil Twilight 7:08 AM CST 5:24 PM CST
Nautical Twilight 6:31 AM CST 6:01 PM CST
Astronomical Twilight 5:55 AM CST 6:37 PM CST
Moon 10:53 AM CST (1/18) 12:07 AM CST (1/18)
Length of Visible Light 10h 16m
Length of Day
9h 09m
Waxing Crescent, 47% of the Moon is Illuminated
Jan 18
Waxing Crescent
Jan 18
First Quarter
Jan 26
Full
Feb 3
Last Quarter
Feb 10
New

Hourly Weather History & Observations

Time (CST) Temp. Windchill Dew Point Humidity Pressure Visibility Wind Dir Wind Speed Gust Speed Precip Events Conditions
12:53 AM -2.0 °F - -7.1 °F 79% 30.36 in 10.0 mi Calm Calm - N/A   Mostly Cloudy
1:53 AM 1.0 °F - -2.9 °F 83% 30.33 in 10.0 mi Calm Calm - N/A   Overcast
2:53 AM 7.0 °F 0.1 °F 1.9 °F 80% 30.30 in 10.0 mi South 3.5 mph - N/A   Overcast
3:35 AM 8.6 °F 0.1 °F 3.2 °F 79% 30.18 in 2.0 mi SSE 4.6 mph - 0.00 in Snow Light Snow
3:53 AM 8.1 °F -0.5 °F 3.0 °F 80% 30.24 in 2.0 mi SSE 4.6 mph - 0.00 in Snow Light Snow
4:09 AM 8.6 °F 0.1 °F 3.2 °F 79% 30.14 in 1.8 mi South 4.6 mph - 0.00 in Snow Light Snow
4:53 AM 10.0 °F 1.8 °F 5.0 °F 80% 30.20 in 1.5 mi SSE 4.6 mph - 0.00 in Snow Light Snow
5:46 AM 10.4 °F -1.5 °F 5.0 °F 79% 30.05 in 1.0 mi SSE 8.1 mph - 0.01 in Snow Light Snow
5:53 AM 10.0 °F -2.9 °F 5.0 °F 80% 30.14 in 1.2 mi SSE 9.2 mph - 0.01 in Snow Light Snow
6:32 AM 10.4 °F -3.3 °F 6.8 °F 85% 30.01 in 3.0 mi SE 10.4 mph 16.1 mph 0.01 in Snow Light Snow
6:53 AM 10.9 °F -0.8 °F 6.1 °F 81% 30.08 in 1.8 mi SE 8.1 mph 17.3 mph 0.01 in Snow Light Snow
7:05 AM 12.2 °F -0.2 °F 6.8 °F 79% 29.97 in 3.0 mi SE 9.2 mph 16.1 mph 0.00 in Snow Light Snow
7:53 AM 12.9 °F 0.7 °F 7.0 °F 77% 30.04 in 8.0 mi SSE 9.2 mph - 0.00 in   Overcast
8:45 AM 14.0 °F 0.5 °F 8.6 °F 79% 29.91 in 10.0 mi South 11.5 mph - N/A   Overcast
8:53 AM 15.1 °F 4.2 °F 9.0 °F 77% 30.01 in 10.0 mi SSE 8.1 mph - N/A   Overcast
9:53 AM 16.0 °F 6.3 °F 10.9 °F 81% 29.97 in 10.0 mi SSE 6.9 mph - N/A   Overcast
10:53 AM 19.0 °F 9.0 °F 12.9 °F 77% 29.94 in 10.0 mi SSE 8.1 mph - N/A   Overcast
11:53 AM 21.9 °F 13.4 °F 15.1 °F 75% 29.87 in 10.0 mi South 6.9 mph - N/A   Mostly Cloudy
12:53 PM 25.0 °F 19.3 °F 17.1 °F 72% 29.83 in 10.0 mi SSE 4.6 mph - N/A   Overcast
1:53 PM 28.9 °F - 21.0 °F 72% 29.80 in 10.0 mi Calm Calm - N/A   Overcast
2:04 PM 28.4 °F 21.2 °F 21.2 °F 74% 29.70 in 10.0 mi South 6.9 mph - N/A   Mostly Cloudy
2:32 PM 30.2 °F 25.4 °F 21.2 °F 69% 29.71 in 10.0 mi SSW 4.6 mph - N/A   Mostly Cloudy
2:46 PM 30.2 °F 24.3 °F 21.2 °F 69% 29.71 in 10.0 mi SW 5.8 mph - N/A   Mostly Cloudy
2:53 PM 30.0 °F 25.2 °F 21.9 °F 72% 29.78 in 10.0 mi SSW 4.6 mph - N/A   Mostly Cloudy
3:16 PM 30.2 °F - 21.2 °F 69% 29.71 in 10.0 mi Calm Calm - N/A   Mostly Cloudy
3:53 PM 30.9 °F 26.2 °F 23.0 °F 72% 29.80 in 10.0 mi Variable 4.6 mph - N/A   Overcast
4:24 PM 30.2 °F 26.7 °F 21.2 °F 69% 29.70 in 10.0 mi SSE 3.5 mph - N/A   Overcast
4:53 PM 28.9 °F - 21.9 °F 75% 29.76 in 10.0 mi Calm Calm - 0.00 in   Scattered Clouds
5:53 PM 27.0 °F - 21.9 °F 81% 29.78 in 10.0 mi Calm Calm - N/A   Overcast
6:53 PM 27.0 °F - 21.9 °F 81% 29.80 in 10.0 mi Calm Calm - N/A   Overcast
7:45 PM 26.6 °F 21.2 °F 19.4 °F 74% 29.74 in 10.0 mi Variable 4.6 mph - N/A   Overcast
7:53 PM 25.0 °F 20.7 °F 19.0 °F 78% 29.81 in 10.0 mi Variable 3.5 mph - N/A   Overcast
8:03 PM 24.8 °F - 17.6 °F 74% 29.74 in 10.0 mi Calm Calm - N/A   Overcast
8:53 PM 23.0 °F - 17.1 °F 78% 29.82 in 10.0 mi Calm Calm - N/A   Overcast
9:53 PM 23.0 °F - 17.1 °F 78% 29.80 in 10.0 mi Calm Calm - N/A   Overcast
10:50 PM 23.0 °F - 17.6 °F 80% 29.73 in 10.0 mi Calm Calm - N/A   Overcast
10:53 PM 21.9 °F - 17.1 °F 82% 29.79 in 10.0 mi Calm Calm - N/A   Overcast
11:53 PM 21.9 °F - 17.1 °F 82% 29.82 in 10.0 mi Calm Calm - N/A   Overcast